This is the latest recevied weather packets stored in our database for station/object N7CEE. If no packets are shown the sender has not sent any weather packets the latest 10 day(s).
| Time | Temp. | Humidity | Pressure | Rain* | Wind** | Luminosity | Snow |
|---|---|---|---|---|---|---|---|
| 1777690730 | 10.56° C | 37% | 1024.1 hPa | 0 mm | - | 0 W/m² | - |
| 1777690428 | 10.56° C | 37% | 1024 hPa | 0 mm | - | 0 W/m² | - |
| 1777690125 | 10.56° C | 36% | 1023.9 hPa | 0 mm | - | 0 W/m² | - |
| 1777689823 | 11.11° C | 35% | 1023.9 hPa | 0 mm | - | 0 W/m² | - |
| 1777689521 | 11.11° C | 35% | 1023.5 hPa | 0 mm | - | 0 W/m² | - |
| 1777689218 | 11.11° C | 35% | 1023.7 hPa | 0 mm | - | 0 W/m² | - |
| 1777688916 | 11.11° C | 36% | 1023.6 hPa | 0 mm | - | 0 W/m² | - |
| 1777688612 | 11.11° C | 36% | 1023.6 hPa | 0 mm | - | 0 W/m² | - |
| 1777688309 | 11.11° C | 35% | 1023.7 hPa | 0 mm | - | 1 W/m² | - |
| 1777688006 | 11.11° C | 35% | 1023.6 hPa | 0 mm | - | 2 W/m² | - |
| 1777687704 | 11.11° C | 34% | 1023.5 hPa | 0 mm | - | 3 W/m² | - |
| 1777687401 | 11.67° C | 34% | 1023.2 hPa | 0 mm | - | 5 W/m² | - |
| 1777687098 | 11.67° C | 33% | 1023 hPa | 0 mm | - | 6 W/m² | - |
| 1777686795 | 11.67° C | 33% | 1022.9 hPa | 0 mm | - | 10 W/m² | - |
| 1777686492 | 11.67° C | 33% | 1022.9 hPa | 0 mm | - | 12 W/m² | - |
| 1777686189 | 11.67° C | 33% | 1023 hPa | 0 mm | - | 13 W/m² | - |
| 1777685885 | 11.67° C | 32% | 1022.9 hPa | 0 mm | - | 16 W/m² | - |
| 1777685581 | 12.22° C | 33% | 1023 hPa | 0 mm | - | 20 W/m² | - |
| 1777685278 | 12.22° C | 32% | 1022.6 hPa | 0 mm | - | 24 W/m² | - |
| 1777684975 | 12.22° C | 32% | 1022.8 hPa | 0 mm | - | 20 W/m² | - |
| 1777684673 | 12.22° C | 32% | 1022.9 hPa | 0 mm | - | 16 W/m² | - |
| 1777684368 | 12.22° C | 32% | 1022.5 hPa | 0 mm | - | 14 W/m² | - |
| 1777684066 | 12.22° C | 31% | 1022.6 hPa | 0 mm | - | 18 W/m² | - |
| 1777683762 | 12.78° C | 31% | 1022.5 hPa | 0 mm | - | 19 W/m² | - |
| 1777683459 | 12.78° C | 31% | 1022.8 hPa | 0 mm | - | 22 W/m² | - |
* Rain latest hour (hover to see other rain measurements)
** Current wind speed in m/s (hover to see current wind gust speed)